Total_Precipitation_Accumulation
0.79 0.78 0.67 0.63 0.62 0.59 0.54 0.55 0.61 0.70 0.76 0.74 0.78 0.82 0.80 0.87 0.92 0.98 1.09 1.19 1.14 1.10 1.03 1.02 1.12 1.16 1.33 1.40 1.35 1.25 1.20 1.12 1.01 0.95 0.71 0.44 0.33 0.30 0.29 0.23 0.20 0.19 0.17
0.85 0.77 0.68 0.66 0.68 0.72 0.69 0.61 0.58 0.65 0.65 0.71 0.79 0.76 0.73 0.76 0.78 0.87 0.98 1.03 1.03 0.95 0.87 0.86 0.93 0.99 1.13 1.26 1.36 1.27 1.21 1.13 1.10 1.06 0.87 0.64 0.50 0.42 0.34 0.27 0.21 0.19 0.21
0.86 0.84 0.74 0.63 0.64 0.67 0.66 0.58 0.54 0.56 0.57 0.67 0.72 0.77 0.72 0.66 0.71 0.76 0.82 0.83 0.75 0.69 0.68 0.69 0.73 0.79 0.89 1.02 1.15 1.24 1.21 1.13 1.16 1.17 0.99 0.76 0.58 0.46 0.42 0.36 0.27 0.26 0.21
0.91 0.84 0.81 0.74 0.73 0.67 0.54 0.48 0.49 0.49 0.48 0.52 0.58 0.62 0.66 0.62 0.60 0.62 0.64 0.72 0.66 0.55 0.48 0.47 0.52 0.56 0.62 0.75 0.88 1.03 1.14 1.18 1.21 1.21 1.10 0.84 0.64 0.49 0.43 0.43 0.43 0.37 0.32
0.97 0.92 0.85 0.79 0.68 0.59 0.52 0.43 0.40 0.37 0.36 0.41 0.52 0.64 0.69 0.66 0.66 0.66 0.58 0.60 0.64 0.61 0.53 0.45 0.41 0.41 0.46 0.53 0.64 0.83 0.97 1.09 1.17 1.20 1.15 0.98 0.79 0.65 0.51 0.46 0.46 0.49 0.48
0.79 0.80 0.81 0.77 0.61 0.53 0.45 0.37 0.32 0.31 0.30 0.33 0.40 0.50 0.64 0.63 0.73 0.72 0.64 0.59 0.60 0.58 0.56 0.57 0.56 0.50 0.39 0.31 0.31 0.43 0.60 0.79 0.96 1.05 1.09 0.99 0.83 0.72 0.66 0.57 0.50 0.45 0.46
0.61 0.64 0.66 0.61 0.48 0.43 0.33 0.29 0.29 0.29 0.30 0.32 0.36 0.46 0.60 0.74 0.71 0.57 0.64 0.62 0.58 0.57 0.52 0.52 0.58 0.57 0.60 0.49 0.38 0.32 0.34 0.44 0.61 0.77 0.83 0.82 0.87 0.77 0.63 0.51 0.46 0.43 0.40
0.45 0.49 0.47 0.47 0.42 0.35 0.27 0.26 0.27 0.28 0.31 0.33 0.36 0.40 0.45 0.59 0.57 0.48 0.64 0.63 0.64 0.63 0.58 0.57 0.61 0.61 0.60 0.71 0.68 0.59 0.50 0.48 0.57 0.46 0.49 0.67 0.72 0.69 0.61 0.53 0.49 0.43 0.35
0.30 0.36 0.40 0.40 0.36 0.31 0.26 0.32 0.38 0.36 0.34 0.34 0.33 0.35 0.37 0.42 0.47 0.42 0.51 0.62 0.69 0.68 0.60 0.58 0.62 0.59 0.73 0.78 0.70 0.66 0.62 0.56 0.72 0.74 0.69 0.61 0.55 0.49 0.48 0.51 0.49 0.44 0.40
0.19 0.24 0.28 0.31 0.34 0.38 0.46 0.53 0.54 0.50 0.41 0.38 0.36 0.34 0.36 0.37 0.47 0.33 0.41 0.55 0.64 0.71 0.66 0.59 0.76 0.71 0.70 0.62 0.51 0.62 0.68 0.62 0.57 0.57 0.57 0.52 0.44 0.39 0.38 0.39 0.47 0.47 0.42
0.04 0.10 0.18 0.29 0.35 0.44 0.56 0.58 0.57 0.51 0.42 0.37 0.35 0.33 0.33 0.41 0.55 0.47 0.48 0.56 0.63 0.70 0.73 0.73 0.69 0.74 0.56 0.49 0.48 0.53 0.66 0.66 0.62 0.64 0.62 0.53 0.42 0.36 0.34 0.33 0.37 0.41 0.42
0.03 0.07 0.13 0.20 0.29 0.42 0.51 0.50 0.49 0.48 0.45 0.41 0.40 0.38 0.39 0.49 0.56 0.55 0.53 0.56 0.59 0.66 0.68 0.60 0.56 0.58 0.43 0.37 0.34 0.41 0.51 0.51 0.51 0.58 0.60 0.56 0.45 0.37 0.34 0.30 0.29 0.30 0.30
0.01 0.02 0.06 0.11 0.22 0.36 0.39 0.39 0.42 0.45 0.44 0.43 0.41 0.38 0.37 0.42 0.50 0.59 0.51 0.43 0.41 0.48 0.49 0.47 0.42 0.36 0.32 0.27 0.27 0.33 0.36 0.44 0.52 0.57 0.53 0.48 0.45 0.41 0.38 0.33 0.27 0.23 0.21
0.00 0.00 0.01 0.02 0.05 0.10 0.15 0.20 0.26 0.31 0.32 0.32 0.35 0.39 0.41 0.41 0.40 0.43 0.44 0.41 0.36 0.34 0.31 0.23 0.23 0.24 0.27 0.28 0.28 0.28 0.31 0.46 0.59 0.59 0.54 0.48 0.48 0.46 0.43 0.40 0.37 0.34 0.31
0.00 0.00 0.01 0.02 0.03 0.04 0.06 0.09 0.12 0.15 0.19 0.25 0.30 0.34 0.34 0.38 0.37 0.37 0.39 0.40 0.44 0.47 0.46 0.35 0.27 0.24 0.25 0.26 0.28 0.33 0.42 0.51 0.59 0.53 0.51 0.46 0.44 0.47 0.46 0.44 0.42 0.40 0.38
0.00 0.00 0.00 0.01 0.01 0.01 0.02 0.03 0.04 0.06 0.09 0.12 0.15 0.18 0.18 0.24 0.31 0.32 0.34 0.36 0.38 0.44 0.47 0.46 0.44 0.44 0.42 0.38 0.35 0.32 0.36 0.41 0.46 0.51 0.51 0.47 0.41 0.41 0.41 0.39 0.38 0.37 0.36
0.00 0.00 0.00 0.01 0.01 0.02 0.03 0.05 0.04 0.03 0.02 0.03 0.05 0.09 0.11 0.11 0.14 0.20 0.26 0.31 0.33 0.36 0.40 0.41 0.42 0.42 0.40 0.35 0.31 0.29 0.27 0.27 0.33 0.41 0.49 0.51 0.49 0.47 0.44 0.39 0.33 0.30 0.30
0.00 0.00 0.01 0.05 0.07 0.04 0.04 0.08 0.11 0.12 0.09 0.04 0.02 0.04 0.05 0.05 0.04 0.06 0.08 0.14 0.17 0.19 0.25 0.28 0.28 0.28 0.27 0.25 0.22 0.19 0.19 0.19 0.21 0.24 0.31 0.39 0.49 0.57 0.56 0.50 0.46 0.40 0.35
0.00 0.01 0.02 0.06 0.07 0.08 0.11 0.13 0.12 0.12 0.11 0.07 0.04 0.02 0.02 0.02 0.02 0.02 0.03 0.06 0.06 0.07 0.09 0.11 0.12 0.12 0.14 0.14 0.12 0.11 0.12 0.14 0.16 0.17 0.20 0.22 0.29 0.38 0.47 0.52 0.54 0.57 0.54
0.00 0.00 0.01 0.03 0.05 0.06 0.08 0.10 0.08 0.07 0.07 0.05 0.04 0.03 0.03 0.03 0.03 0.02 0.02 0.03 0.04 0.04 0.04 0.05 0.05 0.05 0.07 0.07 0.06 0.06 0.06 0.07 0.09 0.11 0.12 0.14 0.17 0.21 0.27 0.35 0.39 0.41 0.43
0.00 0.00 0.00 0.01 0.03 0.03 0.03 0.03 0.04 0.04 0.03 0.02 0.02 0.01 0.02 0.05 0.05 0.04 0.03 0.03 0.03 0.03 0.03 0.03 0.03 0.04 0.05 0.06 0.10 0.12 0.09 0.07 0.07 0.09 0.10 0.10 0.11 0.13 0.16 0.21 0.25 0.27 0.31
0.00 0.00 0.01 0.02 0.04 0.03 0.02 0.02 0.03 0.04 0.03 0.02 0.02 0.01 0.01 0.04 0.05 0.05 0.04 0.03 0.04 0.03 0.03 0.03 0.03 0.04 0.05 0.06 0.10 0.15 0.17 0.14 0.11 0.09 0.10 0.11 0.12 0.12 0.14 0.16 0.17 0.19 0.20
0.00 0.00 0.01 0.02 0.03 0.01 0.01 0.03 0.03 0.03 0.03 0.02 0.02 0.02 0.03 0.04 0.04 0.03 0.03 0.04 0.05 0.06 0.06 0.05 0.04 0.05 0.06 0.07 0.08 0.09 0.10 0.13 0.15 0.15 0.13 0.13 0.14 0.16 0.17 0.17 0.18 0.19 0.20
0.00 0.00 0.01 0.02 0.02 0.02 0.03 0.03 0.03 0.02 0.02 0.02 0.02 0.03 0.04 0.05 0.04 0.03 0.03 0.04 0.05 0.05 0.06 0.05 0.04 0.04 0.05 0.06 0.07 0.08 0.10 0.10 0.09 0.08 0.09 0.10 0.11 0.12 0.14 0.16 0.18 0.19 0.22
0.00 0.00 0.01 0.01 0.01 0.02 0.02 0.03 0.04 0.02 0.02 0.02 0.02 0.02 0.03 0.04 0.05 0.04 0.03 0.03 0.03 0.03 0.03 0.03 0.03 0.05 0.08 0.09 0.09 0.12 0.18 0.17 0.12 0.09 0.09 0.10 0.11 0.13 0.16 0.20 0.23 0.26 0.28
0.00 0.00 0.01 0.01 0.01 0.01 0.02 0.04 0.04 0.04 0.03 0.02 0.03 0.03 0.04 0.04 0.04 0.03 0.03 0.02 0.02 0.02 0.02 0.03 0.03 0.05 0.08 0.09 0.09 0.11 0.14 0.13 0.13 0.12 0.08 0.08 0.10 0.14 0.19 0.22 0.24 0.28 0.34